This is the latest recevied weather packets stored in our database for station/object N2UGS-WX. If no packets are shown the sender has not sent any weather packets the latest 10 day(s).
| Time | Temp. | Humidity | Pressure | Rain* | Wind** | Luminosity | Snow |
|---|---|---|---|---|---|---|---|
| 1777649102 | 6.67° C | 79% | 1013.9 hPa | 0 mm | - | - | - |
| 1777648203 | 7.22° C | 77% | 1013.9 hPa | 0 mm | - | - | - |
| 1777647302 | 7.78° C | 74% | 1013.9 hPa | 0 mm | - | - | - |
| 1777646343 | 8.33° C | 76% | 1013.9 hPa | 0 mm | - | - | - |
| 1777645742 | 8.33° C | 75% | 1013.5 hPa | 0 mm | - | - | - |
| 1777644842 | 7.22° C | 74% | 1013.5 hPa | 0 mm | - | - | - |
| 1777643942 | 7.22° C | 78% | 1013.9 hPa | 0 mm | - | - | - |
| 1777643342 | 6.67° C | 77% | 1013.5 hPa | 0 mm | - | - | - |
| 1777641842 | 6.67° C | 82% | 1013.5 hPa | 0 mm | - | - | - |
| 1777640942 | 6.67° C | 84% | 1013.5 hPa | 0 mm | - | - | - |
| 1777640042 | 6.67° C | 89% | 1013.9 hPa | 0 mm | - | - | - |
| 1777639442 | 6.11° C | 90% | 1013.9 hPa | 0 mm | - | - | - |
| 1777638603 | 5.56° C | 95% | 1013.9 hPa | 0 mm | - | - | - |
| 1777638002 | 5° C | 97% | 1013.9 hPa | 0 mm | - | - | - |
| 1777637041 | 4.44° C | 98% | 1013.9 hPa | 0 mm | - | - | - |
| 1777636142 | 3.89° C | 98% | 1013.9 hPa | 0.25 mm | - | - | - |
| 1777635301 | 3.33° C | 98% | 1013.9 hPa | 0.25 mm | - | - | - |
| 1777634342 | 2.78° C | 98% | 1013.9 hPa | 0.25 mm | - | - | - |
| 1777633742 | 2.78° C | 98% | 1013.9 hPa | 0.25 mm | - | - | - |
| 1777632902 | 2.22° C | 98% | 1013.9 hPa | 0 mm | - | - | - |
| 1777632002 | 1.11° C | 98% | 1013.5 hPa | 0 mm | - | - | - |
| 1777631103 | 0.56° C | 97% | 1013.9 hPa | 0 mm | - | - | - |
| 1777630202 | 0.56° C | 97% | 1013.5 hPa | 0 mm | - | - | - |
| 1777629302 | 0.56° C | 96% | 1013.5 hPa | 0 mm | - | - | - |
| 1777628402 | 0.56° C | 96% | 1013.5 hPa | 0 mm | - | - | - |
* Rain latest hour (hover to see other rain measurements)
** Current wind speed in m/s (hover to see current wind gust speed)